Lincoln, IL

9:44 PM CDT on August 30, 2016 (GMT -0500)
Lincoln

Weather History for KAAA - July, 2013

Change the Weather History Date:

Thursday, July 25, 2013

  Actual Average (KSPI) Record (KSPI)
Temperature  
Mean Temperature 68 °F 76 °F  
Max Temperature 81 °F 86 °F 103 °F (1936)
Min Temperature 54 °F 65 °F 54 °F (1991)
Degree Days  
Heating Degree Days 0 0  
Month to date heating degree days 0  
Since 1 June heating degree days 15  
Since 1 July heating degree days 0  
Cooling Degree Days 2 11  
Month to date cooling degree days 275  
Year to date cooling degree days 619  
Since 1 June cooling degree days 515  
Growing Degree Days 18 (Base 50)    
Moisture  
Dew Point 56 °F    
Average Humidity 66    
Maximum Humidity 92    
Minimum Humidity 41    
Precipitation  
Precipitation 0.00 in 0.13 in 1.81 in (1937)
Month to date precipitation 3.25  
Year to date precipitation 21.72  
Snow  
Snow 0.00 in 0.00 in 0.00 in ()
Month to date snowfall 0.0  
Since 1 June snowfall 0.0  
Since 1 July snowfall 0.0  
Snow Depth -    
Sea Level Pressure  
Sea Level Pressure 30.07 in    
Wind  
Wind Speed 0 mph (West)    
Max Wind Speed 6 mph    
Max Gust Speed -    
Visibility 10 miles    
Events      
T = Trace of Precipitation, MM = Missing Value Source: NWS Daily Summary

Daily Weather History Graph

Daily Weather History Graph

Search for Another Location

Airport or City:

Trip Planner

Search our weather history database for the weather conditions in past years. The results will help you decide how hot, cold, wet, or windy it might be!

Date:

Astronomy

Jul. 25, 2013 Rise Set
Actual Time 5:49 AM CDT 8:18 PM CDT
Civil Twilight 5:18 AM CDT 8:48 PM CDT
Nautical Twilight 4:39 AM CDT 9:27 PM CDT
Astronomical Twilight 3:56 AM CDT 10:10 PM CDT
Moon 9:58 PM CDT (7/25) 9:18 AM CDT (7/25)
Length of Visible Light 15h 30m
Length of Day
14h 28m
Waning Gibbous, 88% of the Moon is Illuminated
Jul 25
Waning Gibbous
Jul 29
Last Quarter
Aug 6
New
Aug 14
First Quarter
Aug 20
Full

Hourly Weather History & Observations

Time (CDT) Temp. Heat Index Dew Point Humidity Pressure Visibility Wind Dir Wind Speed Gust Speed Precip Events Conditions
12:15 AM 60.4 °F - 54.7 °F 81% 30.03 in 10.0 mi Calm Calm - N/A   Clear
12:35 AM 59.4 °F - 54.0 °F 82% 30.04 in 10.0 mi Calm Calm - N/A   Clear
12:55 AM 58.8 °F - 53.6 °F 83% 30.05 in 10.0 mi Calm Calm - N/A   Clear
1:15 AM 59.0 °F - 52.9 °F 80% 30.05 in 10.0 mi Calm Calm - N/A   Clear
1:35 AM 59.0 °F - 52.9 °F 80% 30.05 in 10.0 mi Calm Calm - N/A   Clear
1:55 AM 58.1 °F - 52.7 °F 82% 30.04 in 10.0 mi Calm Calm - N/A   Clear
2:15 AM 57.6 °F - 52.3 °F 83% 30.04 in 10.0 mi Calm Calm - N/A   Clear
2:35 AM 57.2 °F - 52.2 °F 83% 30.04 in 10.0 mi Calm Calm - N/A   Clear
2:55 AM 57.2 °F - 52.0 °F 83% 30.05 in 10.0 mi Calm Calm - N/A   Clear
3:15 AM 56.5 °F - 52.2 °F 85% 30.05 in 10.0 mi Calm Calm - N/A   Clear
3:35 AM 55.8 °F - 52.5 °F 89% 30.06 in 10.0 mi Calm Calm - N/A   Clear
3:55 AM 55.8 °F - 52.0 °F 87% 30.06 in 10.0 mi Calm Calm - N/A   Clear
4:15 AM 55.4 °F - 52.7 °F 91% 30.06 in 10.0 mi Calm Calm - N/A   Clear
4:35 AM 54.1 °F - 51.4 °F 91% 30.07 in 10.0 mi Calm Calm - N/A   Clear
4:55 AM 54.9 °F - 52.7 °F 92% 30.07 in 10.0 mi Calm Calm - N/A   Clear
5:15 AM 54.0 °F - 51.8 °F 92% 30.07 in 10.0 mi Calm Calm - N/A   Clear
5:35 AM 54.1 °F - 52.0 °F 92% 30.08 in 10.0 mi Calm Calm - N/A   Clear
5:55 AM 54.5 °F - 52.2 °F 92% 30.07 in 10.0 mi Calm Calm - N/A   Clear
6:15 AM 54.9 °F - 52.2 °F 91% 30.07 in 10.0 mi Calm Calm - N/A   Clear
6:35 AM 56.1 °F - 52.9 °F 89% 30.08 in 10.0 mi Calm Calm - N/A   Clear
6:55 AM 58.3 °F - 53.6 °F 84% 30.08 in 10.0 mi Calm Calm - N/A   Clear
7:15 AM 59.9 °F - 54.1 °F 81% 30.09 in 10.0 mi Calm Calm - N/A   Clear
7:35 AM 61.7 °F - 54.0 °F 76% 30.10 in 10.0 mi Calm Calm - N/A   Clear
7:55 AM 63.1 °F - 54.9 °F 74% 30.10 in 10.0 mi Calm Calm - N/A   Clear
8:15 AM 64.9 °F - 54.3 °F 68% 30.10 in 10.0 mi Calm Calm - N/A   Clear
8:35 AM 67.1 °F - 55.4 °F 66% 30.09 in 10.0 mi Calm Calm - N/A   Clear
8:55 AM 68.2 °F - 55.9 °F 65% 30.10 in 10.0 mi Calm Calm - N/A   Clear
9:15 AM 70.0 °F - 55.6 °F 60% 30.10 in 10.0 mi Calm Calm - N/A   Clear
9:35 AM 71.6 °F - 53.1 °F 52% 30.10 in 10.0 mi Calm Calm - N/A   Clear
9:55 AM 72.7 °F - 52.7 °F 49% 30.09 in 10.0 mi Calm Calm - N/A   Clear
10:15 AM 73.6 °F - 52.3 °F 47% 30.10 in 10.0 mi Calm Calm - N/A   Clear
10:35 AM 75.2 °F - 53.4 °F 47% 30.11 in 10.0 mi Calm Calm - N/A   Clear
10:55 AM 76.1 °F - 53.6 °F 45% 30.11 in 10.0 mi Calm Calm - N/A   Clear
11:15 AM 76.1 °F - 54.7 °F 47% 30.10 in 10.0 mi Calm Calm - N/A   Clear
11:35 AM 76.6 °F - 53.6 °F 45% 30.11 in 10.0 mi Calm Calm - N/A   Clear
11:55 AM 77.2 °F - 55.0 °F 46% 30.10 in 10.0 mi Calm Calm - N/A   Clear
12:15 PM 77.5 °F - 54.0 °F 44% 30.10 in 10.0 mi Calm Calm - N/A   Clear
12:35 PM 78.4 °F - 55.0 °F 44% 30.10 in 10.0 mi Calm Calm - N/A   Clear
12:55 PM 78.3 °F - 56.5 °F 47% 30.09 in 10.0 mi Calm Calm - N/A   Clear
1:15 PM 78.6 °F - 54.9 °F 44% 30.10 in 10.0 mi Calm Calm - N/A   Scattered Clouds
1:35 PM 77.7 °F - 54.7 °F 45% 30.09 in 10.0 mi Calm Calm - N/A   Scattered Clouds
1:55 PM 79.7 °F - 54.0 °F 41% 30.08 in 10.0 mi Calm Calm - N/A   Clear
2:15 PM 79.9 °F - 54.7 °F 42% 30.08 in 10.0 mi Calm Calm - N/A   Clear
2:35 PM 80.1 °F 80.1 °F 54.7 °F 41% 30.08 in 10.0 mi NNW 5.8 mph - N/A   Clear
2:55 PM 79.7 °F - 55.2 °F 43% 30.08 in 10.0 mi Calm Calm - N/A   Clear
3:15 PM 81.0 °F 80.7 °F 55.0 °F 41% 30.07 in 10.0 mi Calm Calm - N/A   Mostly Cloudy
3:35 PM 80.6 °F 80.6 °F 56.3 °F 43% 30.07 in 10.0 mi Calm Calm - N/A   Scattered Clouds
3:55 PM 80.1 °F 80.1 °F 54.9 °F 42% 30.06 in 10.0 mi Calm Calm - N/A   Clear
4:15 PM 80.8 °F 80.7 °F 55.9 °F 42% 30.06 in 10.0 mi Calm Calm - N/A   Clear
4:35 PM 79.3 °F - 55.2 °F 43% 30.05 in 10.0 mi Calm Calm - N/A   Clear
4:55 PM 79.2 °F - 55.0 °F 43% 30.05 in 10.0 mi Calm Calm - N/A   Clear
5:15 PM 80.2 °F 80.4 °F 56.1 °F 43% 30.05 in 10.0 mi Calm Calm - N/A   Clear
5:35 PM 78.8 °F - 56.1 °F 46% 30.05 in 10.0 mi Calm Calm - N/A   Clear
5:55 PM 79.2 °F - 56.8 °F 46% 30.05 in 10.0 mi Calm Calm - N/A   Scattered Clouds
6:15 PM 77.9 °F - 59.0 °F 52% 30.05 in 10.0 mi Calm Calm - N/A   Scattered Clouds
6:35 PM 77.9 °F - 57.9 °F 50% 30.06 in 10.0 mi Calm Calm - N/A   Clear
6:55 PM 77.2 °F - 58.8 °F 53% 30.05 in 10.0 mi South 3.5 mph - N/A   Clear
7:15 PM 77.2 °F - 59.4 °F 54% 30.05 in 10.0 mi Calm Calm - N/A   Clear
7:35 PM 75.2 °F - 59.2 °F 57% 30.05 in 10.0 mi Calm Calm - N/A   Clear
7:55 PM 73.4 °F - 62.2 °F 68% 30.05 in 10.0 mi Calm Calm - N/A   Clear
8:15 PM 72.5 °F - 60.6 °F 66% 30.04 in 10.0 mi Calm Calm - N/A   Clear
8:35 PM 71.1 °F - 60.8 °F 70% 30.05 in 10.0 mi Calm Calm - N/A   Clear
8:55 PM 70.7 °F - 59.9 °F 69% 30.05 in 10.0 mi Calm Calm - N/A   Clear
9:15 PM 69.1 °F - 61.7 °F 77% 30.06 in 10.0 mi Calm Calm - N/A   Clear
9:35 PM 68.5 °F - 61.9 °F 79% 30.07 in 10.0 mi Calm Calm - N/A   Clear
9:55 PM 68.2 °F - 61.7 °F 80% 30.06 in 10.0 mi Calm Calm - N/A   Clear
10:15 PM 68.0 °F - 61.0 °F 78% 30.07 in 10.0 mi Calm Calm - N/A   Clear
10:35 PM 68.0 °F - 60.8 °F 78% 30.07 in 10.0 mi Calm Calm - N/A   Clear
10:55 PM 66.4 °F - 60.8 °F 82% 30.07 in 10.0 mi Calm Calm - N/A   Clear
11:15 PM 65.3 °F - 60.6 °F 85% 30.06 in 10.0 mi Calm Calm - N/A   Clear
11:35 PM 66.2 °F - 59.9 °F 80% 30.06 in 10.0 mi Calm Calm - N/A   Clear
11:55 PM 65.1 °F - 59.9 °F 83% 30.06 in 10.0 mi Calm Calm - N/A   Clear